Location: Armidale
(30.5016°S, 151.6662°E)
Time: 08:18:55
(UTC+10:00)

N. Korean satellite - Pass Details

Date: 16 May 2021
Orbit: 450 x 500 km, 97.2° (Epoch: 18 June)

Event Time Altitude Azimuth Distance (km) Brightness Sun altitude
Rises 04:09:05 0° 29° (NNE) 2,469 10.6 -30.8°
Reaches altitude 10° 04:11:12 10° 38° (NE) 1,611 9.7 -30.3°
Enters shadow 04:11:37 13° 41° (NE) 1,450 9.4 -30.2°
